Location: Newark
(44.5608°N, 0.1333°E)
Time: 16:51:35
(UTC+00:00)

ISS - Visible Passes

Search period start: 21 January 2020 00:00
Search period end: 31 January 2020 00:00
Orbit: 415 x 421 km, 51.6° (Epoch: 22 January)

Date Brightness Start Highest point End Pass type
(mag) Time Alt. Az. Time Alt. Az. Time Alt. Az.
21 Jan -2.6 18:10:13 10° SSW 18:13:10 29° SE 18:14:04 25° ESE visible
21 Jan -0.5 19:46:33 10° W 19:47:01 13° W 19:47:01 13° W visible
22 Jan -1.8 17:23:00 10° S 17:25:21 18° SE 17:27:42 10° E visible
22 Jan -3.1 18:58:26 10° WSW 19:01:14 56° W 19:01:14 56° W visible
23 Jan -3.8 18:10:27 10° SW 18:13:49 75° SSE 18:15:23 29° ENE visible
23 Jan -0.5 19:47:49 10° WNW 19:48:20 13° WNW 19:48:20 13° WNW visible
24 Jan -3.2 17:22:38 10° SW 17:25:52 45° SE 17:29:06 10° ENE visible
24 Jan -2.5 18:59:33 10° W 19:02:24 36° NNW 19:02:24 36° NNW visible
25 Jan -3.2 18:11:19 10° W 18:14:36 50° NNW 18:16:26 23° NE visible
25 Jan -0.4 19:49:05 10° WNW 19:49:22 12° WNW 19:49:22 12° WNW visible
26 Jan -2.0 19:00:48 10° WNW 19:03:21 25° NNW 19:03:21 25° NNW visible
27 Jan -2.4 18:12:29 10° WNW 18:15:31 30° NNW 18:17:17 19° NE visible
27 Jan -0.4 19:50:08 10° NW 19:50:13 11° NW 19:50:13 11° NW visible
28 Jan -1.9 19:01:56 10° NW 19:04:09 22° NNW 19:04:09 22° NNW visible
29 Jan -2.1 18:13:40 10° WNW 18:16:29 24° N 18:18:04 17° NE visible
29 Jan -0.4 19:50:51 10° NW 19:50:59 11° NW 19:50:59 11° NW visible
30 Jan -2.0 19:02:47 10° NW 19:04:55 24° NNW 19:04:55 24° NNW visible
